Regional Weather Roundup
Issued by NWS

Home | Current Version | Previous Version | Graphics & Text | Print | Product List | Glossary Off
Versions: 1 2 3 4 5 6 7 8 9 10 11 12 13 14 15 16 17 18 19 20 21 22 23 24 25 26 27 28 29 30 31 32 33 34 35 36 37 38 39 40 41 42 43 44 45 46 47 48 49 50

000
ASUS43 KTOP 030008
RWRKS

WEATHER ROUNDUP FOR KANSAS
NATIONAL WEATHER SERVICE GOODLAND KS
700 PM CDT WED SEP 02 2015

NOTE:  "FAIR" INDICATES FEW OR NO CLOUDS BELOW 12,000 FEET WITH NO
SIGNIFICANT WEATHER AND/OR OBSTRUCTIONS TO VISIBILITY.

KSZ001>006-013>018-027>032-041>047-030100-
NORTHWEST KANSAS

CITY           SKY/WX    TMP DP  RH WIND       PRES   REMARKS
GOODLAND       SUNNY     93  48  21 S5        29.87S
6HR MIN TEMP:  92; 6HR MAX TEMP:  97;

HAYS           SUNNY     99  55  23 S24G31    29.79S HX  97
HILL CITY      SUNNY     99  56  23 S10       29.79S HX  97
6HR MIN TEMP:  94; 6HR MAX TEMP: 102;

RUSSELL        SUNNY     96  58  27 S16G31    29.80S HX  95
6HR MIN TEMP:  94; 6HR MAX TEMP: 101;

$$

KSZ061>065-074>080-084>089-030100-
SOUTHWEST KANSAS

CITY           SKY/WX    TMP DP  RH WIND       PRES   REMARKS
DODGE CITY     SUNNY     92  53  26 S22G32    29.87R
6HR MIN TEMP:  92; 6HR MAX TEMP: 100;

ELKHART          N/A     88  57  34 S12         N/A
GARDEN CITY    MOSUNNY   93  54  26 S17       29.86S
6HR MIN TEMP:  90; 6HR MAX TEMP:  99;

GREAT BEND     SUNNY     95  57  28 S21G26    29.82S
LIBERAL        PTSUNNY   91  54  27 S18G26    29.90S
PRATT          SUNNY     91  54  27 MISG      29.89R
$$

KSZ066>073-081>083-090>101-030100-
SOUTHEAST KANSAS

CITY           SKY/WX    TMP DP  RH WIND       PRES   REMARKS
CHANUTE        CLEAR     84  69  60 S12       29.94F
6HR MIN TEMP:  84; 6HR MAX TEMP:  88;

COFFEYVILLE    CLEAR     84  69  60 S9        29.94S
6HR MIN TEMP:  84; 6HR MAX TEMP:  88;

HUTCHINSON     SUNNY     92  61  35 S15G26    29.87S
6HR MIN TEMP:  92; 6HR MAX TEMP:  96;

MEDICINE LODGE   N/A     93  59  31 S16G23    29.86S
NEWTON         SUNNY     88  63  42 S18       29.92S
PARSONS        CLEAR     84  70  62 S6        29.95F
6HR MIN TEMP:  84; 6HR MAX TEMP:  88;

WICHITA INTL   SUNNY     90  64  42 S15G30    29.88S
6HR MIN TEMP:  90; 6HR MAX TEMP:  95;

WICHITA JABRA  SUNNY     87  64  46 S15G26    29.89F
6HR MIN TEMP:  87; 6HR MAX TEMP:  91;

WINFIELD       SUNNY     88  65  46 SE17G24   29.92S
6HR MIN TEMP:  88; 6HR MAX TEMP:  95;

$$

KSZ007>012-019>026-033>040-048>060-102>105-030100-
NORTHEAST KANSAS

CITY           SKY/WX    TMP DP  RH WIND       PRES   REMARKS
CONCORDIA      SUNNY     90  63  40 S14G22    29.82F
6HR MIN TEMP:  90; 6HR MAX TEMP:  96;

EMPORIA        CLEAR     85  69  58 S15       29.91S
6HR MIN TEMP:  85; 6HR MAX TEMP:  91;

LAWRENCE       CLEAR     85  68  56 S7        29.91S
6HR MIN TEMP:  82; 6HR MAX TEMP:  91;

MANHATTAN      CLEAR     91  66  43 S14G22    29.85S
6HR MIN TEMP:  90; 6HR MAX TEMP:  96;

MARYSVILLE     CLEAR     88  68  51 S12       29.85S
OLATHE IND     CLEAR     83  70  64 S9        29.94S
6HR MIN TEMP:  82; 6HR MAX TEMP:  88;

OLATHE EXE     CLEAR     82  69  64 S8        29.93S
6HR MIN TEMP:  80; 6HR MAX TEMP:  86;

SALINA         SUNNY     93  63  36 S17       29.84R
6HR MIN TEMP:  93; 6HR MAX TEMP:  97;

TOPEKA BILLARD CLEAR     86  68  54 S10       29.89S
6HR MIN TEMP:  83; 6HR MAX TEMP:  91;

TOPEKA FORBES  CLEAR     86  69  56 S10       29.90S
6HR MIN TEMP:  84; 6HR MAX TEMP:  91;

$$


USA.gov is the U.S. government's official web portal to all federal, state and local government web resources and services.